Wetbulb
75.07 76.77 77.00 73.67 64.68 61.30 56.40 58.32 62.96 61.11 61.61 66.09 66.66 63.77 62.68 64.15 62.39 58.09 71.39 71.32 72.21 73.12 74.45 74.95 74.77 74.51 74.76 74.36 75.22 75.45 76.30 76.11 76.04 75.88 76.09 76.26 76.94 76.56 76.53 76.24 76.37 76.04 76.56 77.29 77.24 77.26 77.20 77.23 77.31
76.15 74.40 73.53 69.71 61.71 54.23 57.06 61.53 60.47 63.07 65.58 67.32 66.86 65.61 62.88 62.13 67.37 68.23 69.34 71.54 72.16 72.74 73.59 74.32 74.59 74.35 74.71 74.44 74.87 75.22 75.64 75.69 75.55 75.39 76.04 76.41 76.34 75.79 74.67 75.70 75.71 76.49 77.19 77.21 76.85 77.12 77.29 76.96 76.69
75.00 74.13 69.31 64.27 59.61 53.30 57.11 61.64 63.19 64.58 65.97 66.08 65.23 67.10 65.12 63.66 68.10 68.88 71.21 72.02 72.78 72.55 73.81 74.67 74.38 74.19 74.30 74.65 74.92 74.98 75.05 75.04 74.96 74.83 74.74 75.29 75.85 75.57 74.44 75.58 76.76 77.01 77.10 77.04 76.62 76.72 76.38 76.32 76.68
73.69 71.91 69.45 61.72 58.70 60.81 61.49 63.82 64.16 63.69 65.78 67.08 66.43 63.36 67.40 69.36 69.55 71.55 72.39 72.24 71.91 72.75 73.67 74.00 74.45 74.54 74.51 74.82 74.55 74.42 74.47 74.87 75.16 74.98 74.58 75.21 75.25 75.55 76.55 76.57 76.82 77.06 76.93 76.48 76.46 76.18 75.96 76.16 76.30
73.23 70.13 60.85 60.44 58.40 62.71 65.19 65.65 64.59 63.08 64.25 65.19 65.75 63.51 64.32 69.11 71.60 72.67 71.28 71.29 71.91 71.98 73.37 74.39 74.56 74.61 74.18 74.13 74.25 73.91 74.61 75.24 75.59 75.40 74.87 75.16 76.28 76.10 76.51 76.34 76.76 76.24 76.55 76.62 76.49 76.52 76.52 76.25 76.86
67.08 67.37 58.97 55.44 57.98 63.09 65.37 66.08 64.34 63.90 64.67 64.97 64.53 64.90 64.88 70.13 70.21 71.78 71.50 71.93 73.42 72.06 73.58 74.57 74.22 73.18 73.18 73.65 74.08 74.59 74.94 74.71 74.58 76.03 76.37 75.62 75.88 76.13 76.28 76.73 76.46 76.61 76.88 76.75 76.63 76.41 76.27 76.96 77.14
65.43 62.77 58.10 57.69 58.65 61.16 63.74 66.90 64.24 63.53 64.04 63.99 66.42 63.12 66.04 68.23 70.38 71.20 72.59 71.57 71.77 73.79 73.25 74.52 74.69 74.22 72.77 72.20 74.11 74.52 74.38 74.30 74.11 74.61 75.55 76.34 76.55 75.97 76.23 76.94 76.80 76.72 76.80 76.69 76.38 75.88 75.63 75.88 76.52
67.71 64.14 58.40 58.51 56.78 59.56 64.43 65.68 66.68 64.46 63.61 67.35 67.42 62.31 63.42 67.97 70.61 70.88 71.84 71.83 71.61 72.46 71.46 72.98 72.64 72.83 72.90 72.89 74.51 74.24 73.76 73.44 73.48 72.97 73.81 75.93 75.53 76.00 76.48 76.81 77.16 76.52 76.57 76.44 76.11 75.13 74.96 76.16 76.41
69.83 60.65 58.75 59.06 58.97 59.42 64.92 63.84 65.67 67.56 65.48 67.00 67.03 66.93 68.34 69.58 70.46 70.21 70.79 70.17 70.69 71.31 70.88 73.53 72.76 72.34 72.60 72.28 73.42 73.59 73.55 72.98 72.45 73.49 74.45 75.53 75.69 76.02 76.48 76.55 76.22 76.18 76.35 75.82 75.20 74.97 75.08 75.60 76.63
65.20 62.21 58.91 63.72 63.27 62.78 62.13 63.62 65.10 64.83 64.94 65.20 66.05 67.89 68.52 69.17 69.33 68.64 68.90 69.13 70.34 70.31 71.32 72.43 73.34 74.77 74.62 74.74 73.69 73.40 73.77 73.89 73.24 74.46 73.99 75.35 76.77 77.43 76.09 76.39 75.91 75.73 75.81 75.73 75.67 75.80 76.39 75.95 75.70
65.27 62.93 63.90 62.26 64.33 64.60 62.78 62.82 66.11 63.31 61.71 65.08 64.79 65.85 67.70 68.51 68.86 68.40 68.53 69.54 69.73 71.53 72.24 73.34 74.92 75.64 73.69 74.48 74.15 74.19 75.16 74.30 74.57 75.99 76.18 75.49 75.63 74.67 73.75 74.15 74.77 75.79 76.32 75.86 75.71 75.48 75.75 75.79 76.58
61.36 65.72 65.01 62.72 65.30 64.62 61.57 64.26 64.65 65.42 63.56 66.81 67.40 67.66 67.74 67.79 67.87 68.04 68.36 69.81 70.60 70.87 71.55 72.33 74.19 74.46 73.74 74.23 72.69 73.14 73.39 73.53 74.13 74.34 75.39 74.95 73.73 74.11 73.81 73.17 74.26 74.97 75.76 75.66 75.72 75.40 76.63 76.95 76.75
64.31 65.17 65.70 65.32 65.38 65.04 65.41 64.09 64.28 64.46 67.37 67.11 67.91 68.22 67.51 67.85 67.94 69.02 69.58 70.65 71.49 70.81 71.90 72.66 73.60 74.16 74.29 74.58 74.10 73.07 73.83 73.40 73.54 74.44 75.14 74.39 73.89 74.68 74.65 75.34 75.35 75.58 75.10 76.02 76.32 76.08 77.41 76.79 76.03
65.81 65.54 65.09 64.86 62.58 63.05 61.77 62.25 65.03 65.85 67.87 66.58 66.93 67.29 67.66 68.00 68.23 68.67 69.34 69.83 70.87 71.33 71.82 72.26 72.69 75.80 76.45 76.05 75.50 74.01 73.15 74.43 73.76 73.96 75.31 76.68 75.08 77.54 75.48 76.45 75.18 75.58 76.40 75.89 76.53 77.35 76.18 76.40 75.50
66.02 61.78 63.94 64.28 62.49 62.36 62.54 58.81 61.81 66.17 67.56 65.70 66.01 66.89 67.22 68.42 68.96 68.69 69.72 70.29 70.97 71.47 72.26 71.74 73.13 75.08 75.75 75.94 75.18 74.97 73.74 74.16 73.26 74.81 76.69 76.28 76.81 77.34 77.62 76.62 75.50 75.15 77.00 77.81 77.25 77.06 76.64 75.07 75.02
61.85 62.13 58.48 63.60 65.10 62.86 61.28 53.44 59.21 64.81 66.86 64.22 65.32 66.41 67.26 68.14 68.72 69.63 70.04 70.80 71.62 71.83 72.44 72.37 72.27 73.84 74.66 75.91 76.43 74.16 75.26 73.73 73.74 74.58 76.09 76.59 76.97 77.19 78.01 76.53 75.86 76.77 76.49 75.55 75.32 75.83 74.97 75.23 75.15
61.48 54.37 57.40 60.48 65.06 63.78 61.74 56.27 60.37 64.57 66.05 64.58 64.95 65.60 65.93 67.92 68.55 70.75 71.08 71.24 71.49 72.89 72.93 72.10 72.32 72.81 74.37 75.58 75.39 75.95 75.37 74.06 74.16 74.50 75.08 76.71 76.14 77.15 78.04 76.48 77.06 78.75 76.08 75.88 75.16 74.68 75.35 74.86 75.13
51.98 54.45 56.63 57.26 62.67 63.13 60.70 59.90 63.26 64.07 64.61 64.93 65.17 65.34 65.86 66.33 68.17 70.24 70.84 71.26 71.76 72.98 73.82 73.78 73.12 74.61 74.90 75.41 76.39 74.93 74.11 73.61 74.08 74.55 75.33 76.33 75.83 76.98 77.88 76.60 77.75 78.35 75.15 74.92 76.18 77.31 76.64 75.61 75.35
57.07 55.37 55.85 59.92 62.59 61.90 60.39 60.78 63.43 65.07 64.46 64.24 65.28 65.33 65.50 66.42 68.15 69.88 70.99 71.58 71.94 73.10 73.34 73.91 73.93 75.88 75.13 73.97 73.41 72.86 72.12 73.30 73.34 74.39 75.63 76.27 76.10 77.14 78.12 76.01 77.24 77.51 77.72 78.46 77.73 77.13 76.97 75.03 75.48
56.38 54.72 56.52 60.21 62.16 62.26 60.93 60.42 63.60 65.54 64.13 64.92 65.67 65.30 65.26 66.51 66.69 69.64 71.03 71.12 71.89 72.62 73.12 73.95 74.46 75.54 75.38 73.86 74.22 74.93 76.65 73.36 73.71 74.93 75.58 76.00 76.13 77.46 76.88 78.24 77.48 79.62 76.94 78.54 78.19 78.25 75.43 74.56 75.87
55.34 55.02 56.43 55.89 60.64 61.69 59.23 56.14 61.38 64.40 66.28 66.06 65.38 67.62 67.30 65.67 67.03 68.88 70.31 70.76 71.28 72.57 73.17 73.58 74.82 75.10 75.62 75.79 75.50 75.69 75.97 76.30 73.93 74.95 74.53 75.09 76.28 76.93 76.96 77.45 78.40 78.53 79.71 76.31 78.35 78.26 77.20 73.96 76.07
52.70 57.14 56.14 57.24 54.80 46.80 57.37 49.58 54.20 62.64 63.42 64.68 65.90 65.55 66.36 68.00 66.37 67.77 69.27 70.01 70.96 72.37 73.87 74.39 74.85 75.04 75.70 76.52 77.04 76.39 73.05 71.84 73.29 73.89 74.39 74.94 76.68 76.83 77.36 76.52 77.22 78.75 77.88 79.42 78.42 77.70 78.08 77.48 73.92
54.21 57.39 57.32 57.76 56.50 54.58 55.86 52.89 55.02 61.78 61.33 63.27 65.11 66.14 66.33 67.22 67.35 68.69 68.23 69.94 71.53 72.41 72.79 74.34 74.69 74.55 75.72 76.63 76.68 74.40 74.76 71.45 73.72 74.80 77.11 78.63 77.77 77.54 76.97 76.40 76.80 77.45 77.11 79.19 78.50 78.44 78.40 77.13 75.62
56.39 55.87 57.14 57.18 55.40 49.75 53.55 51.76 54.55 55.23 60.13 62.56 64.70 66.73 66.43 66.83 68.24 69.00 69.67 69.83 71.03 72.32 72.86 73.63 74.54 74.53 76.39 76.62 75.52 75.60 75.43 73.55 74.72 74.42 73.87 74.01 75.43 76.29 77.67 76.71 76.84 77.13 77.41 77.86 77.77 78.57 78.43 78.29 77.42
56.61 54.99 49.25 47.75 47.21 48.43 54.74 50.52 55.05 57.75 61.34 63.51 63.74 65.18 67.70 68.06 67.47 68.46 68.99 69.47 70.85 71.86 72.51 73.01 74.85 74.39 75.59 75.92 75.56 75.26 75.96 75.74 74.70 74.88 73.42 74.19 73.83 73.89 77.44 77.83 77.52 75.80 77.12 77.54 78.56 78.92 78.95 77.89 77.60
55.26 54.36 49.37 44.30 45.55 49.19 54.03 49.59 54.98 59.69 62.95 65.37 65.26 67.20 67.27 68.03 68.61 69.35 69.70 70.62 71.55 71.89 72.83 73.89 74.79 74.89 75.14 75.31 75.77 77.14 76.62 75.01 74.61 74.94 73.97 73.41 73.68 73.12 79.38 77.80 77.66 76.25 76.46 77.00 77.89 77.51 77.14 79.05 76.99
54.24 51.58 55.34 51.27 51.69 48.78 51.06 53.82 57.36 58.85 60.83 63.16 65.37 66.26 67.21 66.81 67.97 69.45 70.15 70.77 71.16 72.35 72.77 73.53 74.78 75.63 75.74 75.38 76.88 76.52 77.68 76.03 75.70 78.67 76.71 75.53 78.18 76.67 77.07 77.09 77.44 77.19 76.26 77.54 77.72 74.99 76.86 77.54 77.47
54.79 56.68 51.00 50.72 45.78 45.96 48.89 50.41 53.23 57.43 58.76 60.73 62.36 65.09 67.18 68.64 68.31 69.16 69.89 70.81 71.57 72.19 73.08 73.66 74.45 75.19 76.02 75.70 75.98 76.02 75.96 76.34 76.46 76.48 77.78 77.57 72.65 76.61 76.66 76.77 76.72 77.37 77.41 77.74 78.56 77.82 77.99 77.48 76.17
53.00 51.96 52.40 52.76 52.25 47.39 47.51 48.56 56.97 58.56 59.39 60.49 62.71 64.78 66.72 67.60 68.51 68.94 69.72 70.34 72.37 72.78 72.34 73.04 73.90 74.56 75.36 75.76 76.35 76.33 75.84 76.09 76.40 75.11 76.50 76.46 77.32 77.54 77.09 77.89 77.38 76.96 76.93 77.26 78.28 78.26 77.81 77.42 77.22
55.81 54.49 54.55 49.67 49.46 52.35 50.46 49.94 59.09 60.43 61.16 62.46 64.18 66.27 67.86 68.54 69.00 69.80 70.24 69.32 71.12 72.38 73.38 73.49 72.81 74.10 75.01 75.84 76.20 75.89 76.19 76.29 75.74 75.69 75.52 76.64 77.50 78.07 78.13 77.47 77.72 77.10 76.69 77.63 77.28 76.36 76.13 76.18 75.96
MSLP
1009.20 1008.22 1007.19 1006.48 1006.12 1005.21 1004.22 1003.12 1002.65 1003.03 1003.65 1004.16 1004.91 1005.48 1006.40 1006.95 1007.10 1008.86 1009.98 1010.64 1011.35 1011.80 1012.60 1013.44 1014.07 1014.28 1014.47 1014.63 1014.66 1014.68 1014.78 1014.96 1015.15 1015.20 1015.28 1015.40 1015.37 1015.40 1015.49 1015.50 1015.61 1015.75 1015.86 1015.95 1015.93 1016.05 1016.10 1016.20 1016.28
1007.25 1007.05 1006.90 1006.05 1005.10 1005.17 1003.88 1003.10 1003.09 1003.23 1003.84 1004.91 1005.33 1006.15 1006.71 1007.78 1008.58 1009.67 1010.68 1011.47 1011.58 1011.91 1012.16 1013.10 1014.19 1014.43 1014.56 1014.78 1014.90 1015.01 1015.09 1015.25 1015.40 1015.57 1015.55 1015.62 1015.63 1015.70 1015.88 1015.89 1015.93 1016.13 1016.02 1016.02 1016.20 1016.40 1016.33 1016.42 1016.51
1008.01 1006.92 1006.23 1004.83 1005.15 1005.12 1004.12 1003.91 1004.04 1004.52 1004.65 1004.56 1005.77 1006.45 1006.84 1008.21 1009.08 1010.33 1011.41 1011.87 1012.24 1012.89 1012.84 1013.89 1014.30 1014.52 1014.69 1014.92 1015.05 1015.19 1015.31 1015.47 1015.60 1015.85 1015.88 1015.96 1015.85 1015.92 1016.15 1016.16 1016.21 1016.52 1016.29 1016.35 1016.61 1016.73 1016.72 1016.74 1016.81
1006.95 1006.39 1006.11 1005.08 1005.00 1005.36 1004.23 1004.48 1004.52 1004.66 1004.96 1005.56 1006.05 1007.40 1008.56 1008.72 1009.28 1010.68 1011.71 1012.13 1012.39 1012.51 1013.22 1014.43 1014.61 1014.80 1014.93 1015.17 1015.28 1015.39 1015.46 1015.66 1015.68 1016.00 1016.09 1016.09 1016.03 1016.13 1016.35 1016.46 1016.52 1016.62 1016.60 1016.77 1016.82 1016.88 1016.98 1017.04 1017.02
1006.74 1005.70 1005.25 1005.48 1006.05 1005.29 1005.49 1005.32 1005.17 1004.84 1005.25 1005.92 1006.04 1007.49 1008.82 1009.54 1009.97 1010.74 1011.93 1012.51 1012.43 1012.97 1013.36 1014.36 1014.97 1015.14 1015.24 1015.36 1015.50 1015.76 1015.74 1015.80 1015.95 1016.07 1016.34 1016.39 1016.38 1016.56 1016.64 1016.69 1016.61 1016.81 1016.88 1017.01 1017.05 1017.15 1017.23 1017.12 1017.05
1006.34 1006.10 1006.10 1006.50 1006.87 1006.11 1006.66 1006.09 1005.53 1005.40 1005.93 1006.45 1006.90 1007.78 1009.23 1010.07 1010.18 1010.15 1011.76 1012.41 1013.33 1013.43 1013.65 1014.47 1015.32 1015.53 1015.73 1015.76 1015.97 1016.08 1016.20 1016.21 1016.43 1016.33 1016.46 1016.66 1016.73 1016.93 1016.96 1016.78 1016.97 1017.13 1017.10 1017.20 1017.26 1017.39 1017.42 1017.26 1017.27
1005.96 1006.63 1006.94 1007.35 1007.69 1007.19 1007.49 1006.88 1005.94 1005.65 1005.63 1006.13 1006.85 1007.76 1009.37 1009.74 1010.33 1010.22 1011.36 1012.72 1013.13 1013.36 1014.54 1015.20 1015.19 1015.91 1016.16 1016.27 1016.45 1016.53 1016.59 1016.75 1017.06 1016.75 1016.78 1016.84 1016.96 1017.12 1017.06 1016.90 1017.19 1017.23 1017.23 1017.35 1017.44 1017.56 1017.49 1017.43 1017.42
1005.03 1006.22 1006.94 1007.76 1008.36 1008.19 1008.41 1007.88 1007.21 1006.20 1006.65 1006.81 1006.80 1007.75 1008.84 1009.86 1010.33 1010.65 1010.94 1012.01 1012.96 1013.54 1014.86 1015.34 1016.18 1016.56 1016.96 1016.59 1016.92 1017.04 1017.20 1017.25 1017.30 1017.34 1017.16 1017.12 1017.06 1017.09 1017.26 1017.15 1017.25 1017.32 1017.49 1017.49 1017.58 1017.64 1017.59 1017.53 1017.43
1004.91 1005.65 1005.95 1006.56 1008.04 1009.03 1008.83 1008.10 1008.26 1007.38 1006.73 1006.98 1007.01 1006.92 1008.53 1010.06 1010.34 1010.49 1010.82 1012.30 1013.08 1014.17 1014.30 1014.36 1016.04 1016.76 1016.90 1017.11 1017.26 1017.44 1017.52 1017.62 1017.56 1017.40 1017.36 1017.36 1017.03 1016.81 1017.26 1017.37 1017.36 1017.58 1017.60 1017.62 1017.66 1017.69 1017.54 1017.33 1017.13
1003.92 1004.83 1006.65 1007.07 1007.86 1008.61 1009.22 1008.41 1007.75 1006.95 1006.72 1007.27 1007.29 1008.09 1009.27 1010.04 1010.22 1010.50 1010.60 1011.44 1012.31 1013.82 1014.37 1014.53 1015.25 1016.01 1016.66 1017.03 1017.53 1017.63 1017.69 1017.72 1017.70 1017.36 1017.49 1017.49 1017.35 1017.05 1016.55 1017.25 1017.49 1017.66 1017.72 1017.58 1017.62 1017.49 1016.96 1016.87 1015.95
1004.03 1005.18 1006.64 1008.25 1008.23 1009.15 1009.35 1009.10 1007.84 1007.02 1006.88 1006.78 1007.75 1008.59 1009.38 1009.96 1010.06 1010.35 1010.71 1011.18 1012.33 1012.76 1013.32 1014.42 1015.01 1015.34 1015.50 1016.18 1016.76 1017.05 1016.95 1017.28 1017.56 1017.00 1016.79 1016.90 1016.63 1016.60 1016.44 1016.98 1017.04 1017.14 1017.37 1016.95 1017.16 1016.81 1016.25 1015.24 1014.98
1004.82 1005.56 1007.02 1008.41 1008.49 1009.17 1009.74 1009.21 1007.81 1007.55 1008.59 1006.92 1007.98 1008.67 1009.22 1009.51 1009.57 1009.93 1010.61 1011.48 1012.29 1012.88 1013.30 1014.29 1015.02 1014.97 1015.04 1015.13 1016.88 1016.52 1016.98 1016.22 1016.12 1016.13 1016.33 1016.72 1016.26 1016.23 1016.15 1015.77 1016.15 1016.31 1016.09 1016.00 1015.78 1015.44 1015.86 1015.35 1015.54
1004.06 1005.79 1007.14 1008.38 1008.82 1009.36 1009.81 1009.04 1007.99 1008.25 1007.75 1007.56 1008.13 1008.69 1008.99 1008.92 1009.41 1010.02 1010.65 1011.63 1012.26 1012.81 1013.52 1014.16 1014.84 1015.38 1015.31 1014.96 1014.90 1015.75 1015.54 1015.92 1015.78 1016.16 1016.10 1016.08 1016.18 1016.45 1015.83 1016.22 1015.84 1015.57 1015.80 1015.88 1015.55 1015.47 1015.72 1015.66 1015.37
1004.86 1005.72 1006.62 1008.32 1009.47 1009.99 1010.13 1009.93 1008.78 1008.26 1008.02 1007.94 1008.44 1008.56 1008.82 1008.94 1009.54 1010.32 1010.83 1011.63 1012.25 1012.74 1013.42 1014.32 1014.86 1015.34 1015.79 1015.73 1015.23 1015.32 1015.86 1015.57 1015.52 1016.00 1016.49 1016.33 1016.07 1015.99 1016.21 1016.09 1015.71 1015.85 1015.24 1015.28 1015.52 1015.93 1015.51 1015.50 1015.30
1004.68 1005.79 1006.59 1007.24 1009.32 1009.71 1010.40 1010.52 1009.67 1008.86 1008.41 1008.22 1008.28 1008.40 1008.74 1009.20 1009.93 1010.67 1011.09 1011.63 1012.12 1012.72 1013.54 1014.26 1014.64 1014.98 1015.46 1016.09 1015.68 1015.18 1015.34 1015.69 1015.53 1016.00 1016.96 1016.96 1016.63 1016.53 1016.20 1015.73 1015.41 1015.45 1016.01 1016.27 1016.14 1016.03 1015.62 1015.32 1015.41
1003.95 1005.06 1005.40 1006.91 1007.99 1009.69 1010.15 1011.49 1010.92 1010.17 1008.74 1008.61 1008.45 1008.38 1008.97 1009.37 1009.93 1010.50 1011.17 1011.58 1012.12 1012.82 1013.68 1014.26 1014.09 1014.89 1015.39 1015.77 1015.66 1015.37 1015.01 1015.37 1015.52 1015.91 1016.54 1016.95 1017.00 1016.77 1016.47 1015.90 1015.47 1016.04 1015.75 1015.51 1015.48 1015.55 1015.42 1015.39 1015.51
1003.95 1004.01 1004.61 1005.99 1006.97 1008.22 1009.46 1010.37 1010.85 1010.65 1009.31 1008.62 1008.59 1008.46 1008.93 1009.30 1009.90 1010.33 1011.02 1011.38 1012.19 1012.83 1013.71 1014.08 1014.43 1014.67 1015.33 1015.97 1015.62 1015.62 1016.28 1015.66 1015.64 1015.77 1015.92 1016.78 1016.82 1016.90 1016.05 1015.61 1016.20 1016.59 1015.68 1015.42 1015.37 1015.60 1015.68 1015.56 1015.32
1003.79 1003.05 1003.53 1004.90 1006.00 1006.83 1007.58 1008.12 1009.22 1009.68 1009.49 1008.91 1008.61 1008.59 1008.97 1009.24 1009.52 1010.25 1010.49 1011.21 1011.90 1012.86 1013.64 1014.01 1014.52 1015.03 1015.45 1015.71 1015.86 1015.46 1015.89 1015.68 1015.73 1015.77 1015.91 1016.79 1016.68 1016.84 1016.51 1016.24 1016.39 1016.35 1015.67 1015.66 1015.67 1016.25 1016.04 1015.86 1015.78
1002.41 1002.29 1003.15 1004.02 1005.19 1005.41 1006.18 1006.76 1007.68 1008.77 1009.22 1008.76 1008.69 1008.57 1008.89 1009.11 1009.35 1009.91 1010.28 1010.75 1011.55 1012.40 1013.50 1013.99 1014.52 1015.09 1015.58 1015.60 1015.32 1015.26 1015.30 1015.61 1015.78 1015.84 1016.73 1016.84 1016.70 1016.84 1016.73 1015.95 1016.42 1016.09 1015.95 1016.27 1016.30 1016.03 1015.94 1015.33 1015.88
1001.83 1001.78 1002.98 1003.87 1004.67 1004.94 1005.00 1005.24 1006.35 1007.23 1008.40 1008.51 1008.53 1008.35 1008.61 1008.71 1010.23 1010.25 1009.80 1010.43 1011.14 1012.36 1013.25 1014.01 1014.52 1015.16 1015.68 1015.53 1015.42 1015.05 1015.13 1015.34 1015.40 1015.53 1016.48 1016.62 1016.76 1016.84 1016.84 1016.54 1016.30 1016.32 1016.02 1016.57 1016.56 1016.55 1015.68 1015.65 1016.17
1001.36 1001.06 1002.01 1004.16 1003.99 1004.32 1004.35 1005.55 1005.52 1006.49 1007.09 1008.23 1008.83 1008.33 1008.19 1008.70 1008.66 1009.05 1009.40 1010.23 1010.87 1011.81 1013.03 1013.69 1014.43 1015.08 1015.40 1015.18 1015.36 1015.79 1015.59 1015.68 1015.64 1015.79 1016.29 1016.45 1016.62 1016.68 1016.88 1016.99 1016.69 1016.77 1016.51 1016.25 1016.65 1016.53 1016.44 1015.74 1015.85
1000.44 1001.58 1002.26 1002.60 1004.09 1006.66 1004.53 1005.29 1005.89 1005.24 1006.16 1006.83 1007.31 1008.50 1008.34 1007.70 1009.29 1008.87 1008.95 1009.69 1010.42 1011.09 1012.35 1013.44 1014.12 1014.78 1015.27 1015.46 1015.18 1015.38 1015.50 1015.50 1015.36 1015.43 1015.61 1016.14 1016.47 1016.61 1016.72 1017.03 1017.23 1017.14 1016.22 1016.54 1016.69 1016.56 1016.71 1016.59 1015.62
1000.69 1001.88 1001.98 1002.58 1002.25 1003.63 1003.82 1002.20 1003.95 1003.59 1004.39 1005.24 1006.18 1006.43 1007.64 1008.28 1007.49 1007.97 1009.17 1008.87 1009.56 1010.56 1011.59 1012.82 1013.94 1014.51 1014.83 1015.37 1015.62 1015.74 1015.51 1016.08 1015.55 1015.18 1015.92 1015.95 1016.46 1016.60 1016.60 1017.09 1017.19 1017.20 1016.79 1017.06 1017.10 1017.04 1016.93 1016.42 1016.29
1001.23 1001.56 1001.73 1001.86 1001.59 1001.34 1002.19 1001.72 1002.32 1003.84 1002.07 1003.21 1004.30 1005.31 1006.70 1007.35 1007.16 1007.10 1007.78 1009.07 1008.91 1010.20 1010.88 1011.94 1013.51 1014.24 1014.59 1015.14 1015.67 1015.77 1015.35 1015.68 1015.51 1015.32 1015.77 1015.74 1016.10 1016.53 1016.74 1016.81 1017.11 1017.16 1016.89 1017.05 1017.11 1017.16 1017.09 1016.97 1016.82
1001.22 1000.31 1001.27 1001.69 1001.82 1001.00 1001.50 1000.90 1001.59 1001.85 1002.08 1002.57 1003.51 1004.28 1005.94 1006.80 1007.45 1006.86 1007.25 1007.95 1008.54 1009.44 1010.29 1011.37 1012.85 1013.83 1014.24 1014.62 1015.05 1015.58 1015.61 1015.76 1015.81 1015.67 1015.40 1015.25 1015.65 1015.57 1016.24 1016.69 1017.04 1017.11 1017.26 1017.05 1016.99 1017.27 1017.03 1017.09 1017.09
1000.31 999.68 999.54 1000.29 1000.49 999.14 1000.12 999.89 1000.70 1001.47 1001.97 1002.88 1004.01 1003.72 1004.17 1005.26 1006.37 1006.10 1006.51 1007.31 1008.06 1008.77 1009.77 1010.71 1012.05 1013.25 1013.82 1014.15 1014.64 1015.08 1015.48 1015.73 1015.63 1015.80 1015.11 1014.80 1015.21 1015.50 1015.71 1016.35 1016.46 1016.95 1017.01 1017.09 1017.22 1017.19 1017.09 1016.76 1017.01
999.37 999.77 999.03 998.84 998.51 999.39 999.46 1000.12 1000.52 1001.43 1001.68 1002.51 1003.07 1003.98 1004.22 1004.73 1005.64 1006.01 1006.53 1006.84 1007.73 1008.45 1009.35 1010.21 1011.41 1012.64 1013.24 1013.59 1014.24 1014.50 1015.25 1015.53 1015.28 1015.00 1015.50 1015.20 1014.98 1014.85 1015.44 1015.76 1016.40 1016.60 1016.93 1016.89 1017.11 1017.19 1016.97 1017.14 1017.14
999.79 999.75 999.03 999.14 998.78 998.72 999.98 999.55 1000.46 1001.26 1001.66 1002.16 1002.39 1002.93 1004.31 1004.61 1005.19 1005.55 1006.32 1006.76 1007.39 1008.15 1008.94 1009.91 1010.80 1011.90 1012.54 1012.91 1013.53 1014.00 1014.48 1014.87 1015.19 1015.14 1015.39 1015.16 1015.43 1015.11 1015.49 1015.93 1016.23 1016.46 1016.61 1016.74 1017.05 1016.83 1016.88 1017.11 1017.15
999.64 999.60 999.30 998.60 998.72 998.50 998.80 1000.48 1000.21 1001.10 1001.85 1002.12 1002.82 1003.35 1004.00 1004.73 1005.32 1005.85 1006.28 1006.94 1007.20 1007.74 1008.35 1009.14 1010.15 1011.03 1011.93 1012.31 1012.67 1013.21 1013.75 1014.19 1014.72 1014.87 1015.08 1015.36 1015.15 1015.38 1015.69 1015.94 1016.23 1016.24 1016.42 1016.62 1016.81 1016.96 1016.84 1016.87 1016.95
998.74 998.59 998.94 998.36 999.08 998.88 999.00 1000.48 1000.94 1001.47 1001.92 1002.67 1003.29 1003.82 1004.83 1005.31 1005.45 1005.87 1006.63 1007.07 1007.08 1007.93 1008.34 1008.88 1009.43 1010.15 1010.87 1011.47 1012.12 1012.74 1013.24 1013.59 1013.94 1014.35 1014.36 1014.63 1015.07 1015.41 1015.64 1016.14 1016.18 1016.25 1016.38 1016.37 1016.57 1016.85 1016.29 1016.62 1016.58
Wind_Speed
10 13 7 7 6 1 7 5 13 8 11 15 9 12 17 16 15 6 10 8 17 14 15 13 9 8 6 6 6 7 8 7 7 6 8 9 11 10 10 11 11 11 11 13 12 12 12 12 11
13 3 6 5 7 4 4 8 13 13 13 14 8 13 13 17 15 13 11 6 10 9 10 13 10 8 7 7 7 8 7 7 6 5 8 10 11 11 12 9 11 10 12 12 11 11 12 11 11
16 6 9 6 3 5 11 11 13 9 6 8 8 9 9 11 12 11 13 10 14 13 10 13 11 9 7 8 8 8 9 8 7 6 8 8 11 13 13 9 11 12 12 11 11 11 9 8 7
6 6 7 7 9 15 12 9 10 10 10 9 11 12 15 7 12 17 13 11 12 12 16 13 12 12 9 8 9 7 9 8 8 10 11 9 11 12 12 11 11 11 11 12 11 10 7 5 5
7 7 9 6 4 10 12 8 5 7 8 8 5 18 16 17 15 21 14 12 11 14 16 15 15 15 12 10 8 7 6 9 8 10 11 10 12 12 11 11 12 11 12 12 11 8 6 5 8
2 4 4 4 5 13 10 4 7 9 9 8 17 17 16 14 13 16 19 14 21 6 15 14 16 16 14 14 12 14 12 12 8 9 12 13 11 10 10 11 11 11 11 10 10 7 6 8 8
4 2 3 4 7 8 8 7 8 8 10 13 13 16 13 13 12 11 23 16 9 18 14 11 12 14 15 9 12 16 16 14 12 9 13 12 13 11 10 11 11 10 10 9 8 5 4 5 6
7 3 3 5 3 6 5 7 4 7 12 8 5 6 16 16 13 13 13 18 14 13 15 12 10 9 7 6 13 15 13 12 12 11 8 11 5 9 9 10 9 9 9 8 5 3 3 5 5
8 1 4 8 15 4 3 9 2 2 8 8 2 17 21 17 15 13 14 15 11 13 12 14 15 7 8 10 10 12 13 11 4 6 3 8 8 10 9 9 8 7 7 6 4 3 5 6 9
5 6 3 12 8 13 6 7 9 10 11 9 11 19 20 17 14 12 12 12 14 14 11 6 18 16 12 10 10 9 10 6 4 5 6 5 5 4 10 9 7 5 5 5 6 9 12 13 8
4 4 8 5 7 10 10 2 3 8 8 12 15 18 18 16 13 12 12 10 14 12 10 14 10 12 5 11 11 8 7 8 6 11 12 11 5 6 7 6 6 6 9 8 9 10 10 5 5
4 7 14 5 8 12 8 7 8 14 5 13 16 17 16 16 14 12 14 11 12 10 10 12 10 3 8 8 6 7 6 6 9 5 6 4 4 4 5 4 5 6 7 3 5 3 6 2 1
14 9 14 10 10 12 7 1 2 15 7 14 14 14 15 14 13 11 12 12 10 10 12 9 11 7 6 4 8 5 6 4 9 8 5 5 6 5 4 4 7 4 6 7 3 3 2 1 4
11 8 12 15 10 4 6 6 7 7 5 14 12 13 13 12 13 10 11 12 11 9 11 11 12 11 6 3 1 6 3 6 7 8 4 3 6 3 8 7 7 5 4 4 5 6 2 1 4
12 14 10 13 9 5 10 5 5 8 5 13 11 11 13 12 13 11 10 11 11 9 10 10 12 11 10 8 7 4 7 6 6 8 6 4 4 1 3 1 4 6 6 4 5 5 3 4 4
7 12 6 9 11 6 3 2 13 16 8 10 12 12 12 13 13 12 11 11 11 9 11 10 10 12 7 7 2 1 4 7 5 8 8 6 4 3 6 7 3 5 5 3 3 1 2 3 3
12 6 13 11 11 12 10 8 20 18 12 11 11 15 13 13 13 11 12 11 10 14 11 10 8 10 8 7 5 4 3 3 5 5 6 6 5 4 3 1 6 6 2 1 3 4 4 4 1
18 5 7 10 11 10 7 5 13 15 11 10 10 10 13 13 15 11 13 11 14 13 11 10 9 10 3 8 1 3 6 5 5 4 3 6 5 5 5 5 2 6 3 4 3 5 5 3 3
10 5 9 8 8 9 14 14 12 17 12 12 12 13 11 15 10 13 10 12 12 13 12 10 9 10 7 6 5 7 7 4 5 5 4 4 4 4 2 4 5 5 3 6 2 3 4 1 3
9 1 4 6 7 9 8 8 15 17 16 10 12 9 10 13 12 18 14 13 13 12 11 12 10 10 8 6 4 2 3 7 5 5 5 6 5 4 4 4 1 3 6 2 2 3 5 2 5
13 3 6 14 9 8 5 10 12 13 18 18 14 14 8 9 13 13 13 12 13 15 11 12 12 10 9 6 4 2 2 3 4 6 6 6 5 5 1 3 5 2 7 7 3 1 2 7 3
2 8 4 7 10 3 25 3 21 17 13 15 18 14 13 12 11 9 16 15 13 14 14 12 12 12 10 8 8 6 6 7 8 6 7 7 6 5 5 3 4 3 6 6 3 2 5 4 6
5 4 6 6 12 15 18 8 8 15 18 17 14 18 19 17 16 19 12 15 15 15 15 14 12 13 10 10 5 6 9 7 9 4 9 4 6 5 4 4 4 4 7 5 2 2 4 4 6
4 6 7 10 12 10 1 9 10 3 8 11 19 17 15 20 11 13 13 14 15 12 15 16 14 14 12 11 10 10 7 2 5 5 7 7 7 7 6 5 4 4 4 3 4 3 2 4 5
11 16 5 7 7 9 12 8 10 3 9 6 3 15 20 19 16 18 13 13 14 17 15 14 16 14 14 13 12 11 8 5 4 4 7 5 4 9 10 6 5 5 4 2 4 3 2 2 3
14 18 9 8 9 6 7 0 8 6 9 10 3 3 17 17 17 17 15 12 11 14 15 13 18 15 14 14 13 10 10 7 7 9 5 7 8 9 13 8 5 4 5 5 4 5 6 5 3
6 8 14 10 8 5 6 5 11 5 7 7 8 9 7 10 16 11 15 14 13 14 14 15 17 15 15 15 12 12 10 11 9 5 7 9 4 4 8 6 7 7 7 6 5 6 4 4 3
15 13 7 7 2 11 2 4 12 9 7 5 5 11 7 6 7 16 14 14 12 13 14 15 14 15 15 15 13 12 13 12 10 7 5 4 8 7 5 7 8 7 7 7 6 6 7 5 6
9 10 8 13 8 4 3 9 10 12 6 4 8 5 8 8 7 5 9 8 12 11 11 16 16 16 15 15 13 12 13 13 12 12 11 10 7 5 6 5 6 6 8 8 6 7 6 7 6
12 9 9 7 9 7 9 8 11 12 11 4 8 9 8 5 5 5 12 11 13 9 7 5 12 15 15 14 13 13 12 13 14 13 13 12 10 9 9 7 10 9 8 8 9 10 8 9 8
Wind_Direction
200 212 228 248 260 64 54 88 101 116 86 74 57 76 63 36 18 67 104 92 120 117 132 144 141 145 128 112 125 129 143 134 130 137 118 118 106 106 102 108 115 110 121 111 114 108 106 105 107
238 214 239 273 253 278 86 86 70 53 82 93 84 73 89 73 85 94 92 86 101 128 108 126 139 154 147 139 138 139 140 141 139 135 119 117 115 114 104 86 121 119 120 116 111 112 107 101 106
259 233 272 248 47 223 95 66 78 74 119 119 93 59 34 93 55 100 92 101 91 113 121 105 124 134 141 142 148 141 146 143 140 127 128 140 130 131 122 149 125 126 121 116 108 105 107 108 111
234 213 247 262 306 85 94 79 113 108 67 54 119 92 71 47 94 102 105 100 108 106 99 106 106 107 114 132 138 132 138 137 137 142 147 150 141 133 140 132 123 123 124 117 111 110 113 122 140
228 272 255 129 280 99 69 52 95 91 67 116 94 98 89 89 109 116 104 107 93 110 115 103 97 96 95 106 131 114 117 124 132 143 139 136 136 138 128 129 131 130 122 118 118 114 104 115 127
292 291 303 138 174 106 99 5 75 83 97 109 105 105 101 118 122 122 123 123 111 116 101 103 100 91 79 79 88 101 94 83 80 126 123 124 118 112 121 137 124 130 122 126 117 109 98 111 127
169 133 275 137 159 119 95 344 56 93 110 108 144 112 128 139 125 118 122 107 98 102 85 90 96 100 88 57 68 79 79 84 93 93 118 111 107 144 157 128 129 133 131 128 120 116 114 109 132
278 126 156 121 189 129 109 93 349 60 86 119 86 152 151 129 142 121 135 131 131 114 108 115 105 95 122 139 94 94 82 78 131 133 100 97 123 145 137 134 130 139 142 129 129 149 127 96 108
247 42 236 152 177 125 149 122 57 281 121 39 299 143 129 143 144 140 121 124 108 99 138 125 128 158 148 121 124 113 118 106 71 116 150 149 186 173 140 97 133 152 145 140 170 202 205 175 157
216 33 302 40 52 144 149 117 174 166 125 112 101 105 129 148 156 143 129 140 133 121 117 149 143 150 149 139 148 163 131 143 199 190 203 195 200 95 108 117 145 161 159 178 202 226 230 211 182
42 50 105 40 108 143 144 169 351 186 112 135 129 133 146 154 156 158 134 134 112 126 139 116 137 153 175 139 162 163 157 163 181 221 210 177 145 168 139 136 160 163 190 192 195 209 227 24 355
106 42 92 60 99 133 148 185 232 73 107 109 133 142 148 161 162 158 134 129 147 137 120 135 124 122 115 155 161 176 187 182 165 162 123 147 172 181 167 158 119 186 182 112 225 103 34 265 179
87 97 116 109 95 108 169 308 132 136 168 119 133 149 155 160 146 138 136 135 133 141 115 134 115 142 137 196 144 133 155 186 107 179 150 140 135 131 122 148 181 151 150 190 196 114 34 170 107
95 110 114 121 98 101 68 6 350 113 118 129 151 154 159 147 136 134 142 147 152 143 135 127 140 118 124 76 82 141 178 124 162 134 131 326 124 194 129 197 150 173 238 86 94 23 78 61 113
139 135 135 116 122 106 105 344 332 325 166 152 164 163 145 146 132 156 151 150 148 159 134 149 142 136 141 143 182 176 146 167 150 110 156 146 155 24 142 129 199 145 79 154 150 210 221 109 88
156 148 140 136 147 137 151 216 288 294 267 174 168 149 155 145 158 150 158 159 145 136 148 166 161 142 168 101 169 231 100 149 153 159 154 156 144 147 242 205 118 92 212 131 95 352 154 63 102
133 207 134 155 169 153 165 170 212 236 267 181 181 157 170 161 150 156 155 160 159 131 155 167 149 157 158 147 138 119 108 191 171 170 152 154 157 159 256 200 101 240 185 104 283 103 326 142 358
260 88 96 145 168 179 205 195 160 195 212 237 203 186 176 169 163 169 166 162 157 142 161 172 176 123 149 148 128 148 142 180 167 152 158 174 165 156 237 115 140 249 195 176 48 347 30 311 9
296 50 98 93 128 213 186 155 161 171 191 205 228 159 215 185 168 169 180 156 153 154 164 179 187 139 184 190 213 156 167 156 184 162 153 174 169 145 195 149 180 251 325 26 149 226 158 45 37
292 51 83 126 161 234 146 176 159 172 192 203 224 228 192 185 187 153 171 169 165 158 175 172 184 168 205 197 230 208 176 159 181 166 163 215 177 159 152 324 199 321 107 76 92 7 331 102 60
237 243 142 156 189 251 227 5 161 178 176 193 205 253 242 155 192 179 183 177 179 159 176 180 181 179 196 200 175 180 230 38 203 137 186 187 187 169 222 186 339 282 287 145 184 85 354 343 118
138 353 205 235 110 78 282 184 313 161 190 192 194 203 241 222 155 226 181 186 179 163 167 172 181 179 189 198 183 193 215 176 211 167 173 160 196 180 188 172 212 241 311 42 158 96 333 324 338
66 146 266 259 267 170 241 254 184 164 180 189 214 195 193 237 227 183 229 183 169 169 166 170 179 180 192 188 197 194 232 119 234 155 130 236 166 198 192 192 202 216 248 120 36 274 352 288 312
350 210 226 243 251 260 39 285 106 266 106 175 178 202 189 215 218 229 201 153 161 184 166 165 175 183 193 184 189 220 241 262 317 165 160 185 177 182 202 186 196 223 266 222 223 251 248 333 350
227 222 126 301 359 325 213 280 69 184 107 69 128 172 179 196 209 233 190 180 176 167 183 164 170 188 191 190 188 204 216 213 191 227 216 212 180 180 162 187 189 197 218 243 264 218 298 242 334
209 265 279 287 180 185 112 280 87 58 97 109 163 324 176 178 203 220 199 192 170 185 180 179 164 189 193 191 202 191 195 211 221 202 263 235 158 235 139 175 205 210 194 204 204 234 245 183 227
145 253 279 297 195 264 136 167 135 107 127 129 124 158 181 204 188 209 214 209 187 188 189 190 167 188 195 199 195 188 178 221 220 220 195 234 270 120 151 187 203 182 206 212 182 244 223 254 226
283 332 210 215 174 261 129 218 123 187 95 132 189 123 122 155 208 183 209 205 199 185 191 189 187 183 201 204 194 193 186 200 220 237 238 257 332 246 135 187 205 212 205 211 217 242 198 236 268
187 237 236 287 339 300 102 9 92 119 108 85 103 105 111 125 143 169 188 217 213 201 184 190 191 191 198 207 195 198 194 197 204 208 201 235 241 267 234 198 252 230 221 222 226 259 296 194 230
305 284 244 224 188 293 328 126 100 119 128 114 103 97 90 70 100 167 173 211 206 216 239 205 186 198 196 208 201 199 200 203 201 213 210 204 217 211 225 222 219 222 236 252 202 232 256 215 230